User: anonymous   Login
Location: Alberta Star Party
(51.6612°N, 112.9089°W)
Time: 01:01:23
(UTC-07:00)
Language:

AO-Echo - Orbit

View from above orbital plane
View from above orbital plane
View from above satellite
View from above satellite

Ground track
Ground track

The orbit data is extracted from the following two-line orbital elements,

1 28375U 04025K   17018.88435288 +.00000036 +00000-0 +23805-4 0  9990
2 28375 098.3483 315.5337 0082951 014.5926 345.7631 14.41820473660242
Epoch (UTC): 18 January 2017 21:13:28
Eccentricity: 0.0082951
inclination: 98.3483°
perigee height: 693 km
apogee height: 811 km
right ascension of ascending node: 315.5337°
argument of perigee: 14.5926°
revolutions per day: 14.41820473
mean anomaly at epoch: 345.7631°
orbit number at epoch: 66024

The dashed part of the orbit path shows where the satellite is in the earth's shadow,  

DLR